• En España
  • Lista de países
  • Para 7 días
  • Temperatura del agua
  • Mapa Satelital
  • El tiempo en el mapa
  • Informadores
  • user-avatar
    Iniciar sesión

    Tiempo cada hora Ershi

    Hoy, 16 Octubre, Martes

    Tiempo Temperatura Precipitaciones Viento Presión Humedad
    00:00 +7°C° 0 mm 3 mps 751 mmHg 97%
    01:00 +5°C° 0 mm 3 mps 751 mmHg 96%
    02:00 +5°C° 0 mm 3 mps 751 mmHg 96%
    03:00 +5°C° 0 mm 3 mps 750 mmHg 95%
    04:00 +5°C° 0 mm 3 mps 750 mmHg 95%
    05:00 +5°C° 0 mm 3 mps 750 mmHg 95%
    06:00 +5°C° 0 mm 3 mps 750 mmHg 95%
    07:00 +5°C° 0 mm 3 mps 750 mmHg 93%
    08:00 +6°C° 0 mm 4 mps 750 mmHg 90%
    09:00 +7°C° 0 mm 4 mps 751 mmHg 88%
    10:00 +10°C° 0 mm 4 mps 751 mmHg 84%
    11:00 +11°C° 0 mm 4 mps 751 mmHg 79%
    12:00 +12°C° 0 mm 4 mps 751 mmHg 75%
    13:00 +12°C° 0 mm 4 mps 750 mmHg 76%
    14:00 +12°C° 0 mm 4 mps 750 mmHg 76%
    15:00 +12°C° 0 mm 4 mps 750 mmHg 76%
    16:00 +11°C° 0 mm 4 mps 750 mmHg 81%
    17:00 +10°C° 0 mm 4 mps 750 mmHg 86%
    18:00 +8°C° 0 mm 4 mps 750 mmHg 91%
    19:00 +8°C° 0 mm 4 mps 750 mmHg 91%
    20:00 +8°C° 0 mm 4 mps 749 mmHg 91%
    21:00 +8°C° 0 mm 4 mps 748 mmHg 91%
    22:00 +7°C° 0 mm 4 mps 748 mmHg 89%
    23:00 +7°C° 0 mm 4 mps 748 mmHg 88%

    Mañana, 17 Octubre, Miércoles

    Tiempo Temperatura Precipitaciones Viento Presión Humedad
    00:00 +7°C° 0 mm 5 mps 747 mmHg 87%
    01:00 +7°C° 0 mm 5 mps 747 mmHg 87%
    02:00 +6°C° 0 mm 5 mps 747 mmHg 88%
    03:00 +6°C° 0 mm 5 mps 747 mmHg 88%
    04:00 +6°C° 0 mm 5 mps 747 mmHg 89%
    05:00 +6°C° 0 mm 5 mps 747 mmHg 91%
    06:00 +5°C° 0 mm 5 mps 747 mmHg 92%
    07:00 +6°C° 0 mm 5 mps 747 mmHg 90%
    08:00 +7°C° 0 mm 5 mps 747 mmHg 88%
    09:00 +8°C° 0 mm 6 mps 748 mmHg 86%
    10:00 +8°C° 0 mm 6 mps 748 mmHg 79%
    11:00 +8°C° 0 mm 6 mps 749 mmHg 73%
    12:00 +9°C° 0 mm 7 mps 750 mmHg 66%
    13:00 +9°C° 0 mm 6 mps 750 mmHg 65%
    14:00 +8°C° 0 mm 6 mps 751 mmHg 64%
    15:00 +8°C° 0 mm 5 mps 752 mmHg 63%
    16:00 +7°C° 0 mm 5 mps 752 mmHg 68%
    17:00 +5°C° 0 mm 4 mps 753 mmHg 73%
    18:00 +4°C° 0 mm 3 mps 753 mmHg 78%
    19:00 +4°C° 0 mm 3 mps 754 mmHg 79%
    20:00 +3°C° 0 mm 3 mps 754 mmHg 81%
    21:00 +3°C° 0 mm 3 mps 754 mmHg 83%
    22:00 +3°C° 0 mm 3 mps 754 mmHg 85%
    23:00 +2°C° 0 mm 3 mps 755 mmHg 87%

    Pasado mañana, 18 Octubre, Jueves

    Tiempo Temperatura Precipitaciones Viento Presión Humedad
    00:00 +2°C° 0 mm 3 mps 755 mmHg 89%
    01:00 +2°C° 0 mm 3 mps 755 mmHg 90%
    02:00 +1°C° 0 mm 3 mps 755 mmHg 91%
    03:00 +1°C° 0 mm 3 mps 755 mmHg 92%
    04:00 +1°C° 0 mm 3 mps 755 mmHg 92%
    05:00 +1°C° 0 mm 3 mps 755 mmHg 92%
    06:00 +1°C° 0 mm 3 mps 755 mmHg 92%
    07:00 +2°C° 0 mm 3 mps 755 mmHg 87%
    08:00 +3°C° 0 mm 3 mps 755 mmHg 82%
    09:00 +4°C° 0 mm 3 mps 755 mmHg 77%
    10:00 +5°C° 0 mm 3 mps 754 mmHg 72%
    11:00 +7°C° 0 mm 3 mps 754 mmHg 67%
    12:00 +7°C° 0 mm 4 mps 754 mmHg 62%
    13:00 +8°C° 0 mm 3 mps 753 mmHg 63%
    14:00 +8°C° 0 mm 3 mps 753 mmHg 64%
    15:00 +8°C° 0 mm 3 mps 753 mmHg 65%
    16:00 +8°C° 0 mm 3 mps 752 mmHg 70%
    17:00 +6°C° 0 mm 4 mps 752 mmHg 75%
    18:00 +6°C° 0 mm 4 mps 751 mmHg 79%
    19:00 +6°C° 0 mm 4 mps 751 mmHg 83%
    20:00 +5°C° 0 mm 4 mps 751 mmHg 87%
    21:00 +5°C° 0 mm 4 mps 750 mmHg 91%
    22:00 +5°C° 0 mm 4 mps 750 mmHg 93%
    23:00 +5°C° 0 mm 4 mps 750 mmHg 95%

    19 Octubre, Viernes

    Tiempo Temperatura Precipitaciones Viento Presión Humedad
    00:00 +5°C° 0 mm 3 mps 750 mmHg 96%
    01:00 +5°C° 0 mm 3 mps 749 mmHg 96%
    02:00 +5°C° 0 mm 3 mps 749 mmHg 97%
    03:00 +5°C° 0 mm 3 mps 749 mmHg 97%
    04:00 +5°C° 0 mm 4 mps 749 mmHg 97%
    05:00 +5°C° 0 mm 4 mps 748 mmHg 97%
    06:00 +5°C° 0 mm 4 mps 748 mmHg 96%
    07:00 +5°C° 0 mm 4 mps 748 mmHg 95%
    08:00 +6°C° 0 mm 4 mps 747 mmHg 93%
    09:00 +6°C° 0 mm 5 mps 747 mmHg 91%
    10:00 +7°C° 0 mm 5 mps 747 mmHg 86%
    11:00 +9°C° 0 mm 5 mps 747 mmHg 81%
    12:00 +10°C° 0 mm 5 mps 746 mmHg 76%
    13:00 +12°C° 0 mm 5 mps 746 mmHg 76%
    14:00 +12°C° 0 mm 5 mps 746 mmHg 76%
    15:00 +12°C° 0 mm 5 mps 746 mmHg 75%
    16:00 +12°C° 0 mm 5 mps 746 mmHg 80%
    17:00 +11°C° 0 mm 4 mps 746 mmHg 85%
    18:00 +10°C° 0 mm 4 mps 746 mmHg 89%
    19:00 +10°C° 0 mm 4 mps 746 mmHg 90%
    20:00 +8°C° 0 mm 4 mps 746 mmHg 92%
    21:00 +9°C° 0 mm 3 mps 746 mmHg 93%
    22:00 +9°C° 0.1 mm 3 mps 746 mmHg 94%
    23:00 +9°C° 0.1 mm 3 mps 746 mmHg 95%

    20 Octubre, Sábado

    Tiempo Temperatura Precipitaciones Viento Presión Humedad
    00:00 +9°C° 0.1 mm 3 mps 746 mmHg 96%
    01:00 +8°C° 0.5 mm 2 mps 746 mmHg 95%
    02:00 +8°C° 0.5 mm 2 mps 746 mmHg 95%
    03:00 +8°C° 0.5 mm 2 mps 746 mmHg 95%
    04:00 +8°C° 0 mm 2 mps 746 mmHg 93%
    05:00 +7°C° 0 mm 3 mps 746 mmHg 92%
    06:00 +7°C° 0 mm 3 mps 746 mmHg 90%
    07:00 +7°C° 0 mm 3 mps 746 mmHg 85%
    08:00 +7°C° 0 mm 4 mps 746 mmHg 81%
    09:00 +7°C° 0 mm 4 mps 746 mmHg 76%
    10:00 +8°C° 0 mm 5 mps 746 mmHg 72%
    11:00 +8°C° 0 mm 5 mps 747 mmHg 68%
    12:00 +9°C° 0 mm 5 mps 747 mmHg 64%
    13:00 +8°C° 0 mm 5 mps 747 mmHg 66%
    14:00 +8°C° 0 mm 5 mps 747 mmHg 67%
    15:00 +8°C° 0 mm 5 mps 747 mmHg 69%
    16:00 +7°C° 0 mm 5 mps 748 mmHg 72%
    17:00 +6°C° 0 mm 4 mps 748 mmHg 74%
    18:00 +5°C° 0 mm 4 mps 748 mmHg 77%
    19:00 +5°C° 0 mm 4 mps 748 mmHg 77%
    20:00 +5°C° 0 mm 3 mps 749 mmHg 76%
    21:00 +5°C° 0 mm 3 mps 749 mmHg 76%
    22:00 +4°C° 0 mm 3 mps 749 mmHg 79%
    23:00 +3°C° 0 mm 3 mps 749 mmHg 82%

    21 Octubre, Domingo

    Tiempo Temperatura Precipitaciones Viento Presión Humedad
    00:00 +3°C° 0 mm 3 mps 749 mmHg 86%
    01:00 +2°C° 0 mm 3 mps 750 mmHg 88%
    02:00 +3°C° 0 mm 2 mps 750 mmHg 90%
    03:00 +2°C° 0 mm 2 mps 750 mmHg 92%
    04:00 +2°C° 0 mm 2 mps 750 mmHg 93%
    05:00 +2°C° 0 mm 2 mps 750 mmHg 93%
    06:00 +3°C° 0 mm 1 mps 750 mmHg 93%
    07:00 +3°C° 0 mm 1 mps 751 mmHg 89%
    08:00 +4°C° 0 mm 1 mps 751 mmHg 85%
    09:00 +5°C° 0 mm 1 mps 751 mmHg 81%
    10:00 +6°C° 0 mm 1 mps 751 mmHg 76%
    11:00 +7°C° 0 mm 1 mps 751 mmHg 71%
    12:00 +8°C° 0 mm 1 mps 751 mmHg 66%
    13:00 +8°C° 0 mm 1 mps 751 mmHg 67%
    14:00 +8°C° 0 mm 1 mps 751 mmHg 67%
    15:00 +8°C° 0 mm 1 mps 751 mmHg 67%
    16:00 +6°C° 0 mm 0 mps 751 mmHg 72%
    17:00 +5°C° 0 mm 0 mps 752 mmHg 76%
    18:00 +4°C° 0 mm 0 mps 752 mmHg 81%
    19:00 +3°C° 0 mm 0 mps 752 mmHg 81%
    20:00 +4°C° 0 mm 1 mps 752 mmHg 82%
    21:00 +4°C° 0 mm 1 mps 752 mmHg 82%
    22:00 +4°C° 0 mm 1 mps 752 mmHg 83%
    23:00 +4°C° 0 mm 1 mps 751 mmHg 84%
    Mostrar más